Regional Weather Roundup
Issued by NWS Sioux Falls, SD

Home | Current Version | Previous Version | Text Only | Print | Product List | Glossary On
Versions: 1 2 3 4 5 6 7 8 9 10 11 12 13 14 15 16 17 18 19 20 21 22 23 24 25 26 27 28 29 30 31 32 33 34 35 36 37 38 39 40 41 42 43 44 45 46 47 48 49 50
000
ASUS43 KFSD 240902
RWRFSD

WEATHER ROUNDUP FOR SE SOUTH DAKOTA/SW MINNESOTA/NW IOWA
NATIONAL WEATHER SERVICE SIOUX FALLS SD
400 AM CDT THU JUL 24 2014

NOTE: "FAIR" INDICATES FEW OR NO CLOUDS BELOW 12,000 FEET WITH NO
SIGNIFICANT WEATHER AND OR OBSTRUCTIONS TO VISIBILITY.


SDZ038>040-050-052>070-241000-
SOUTHEAST SOUTH DAKOTA

CITY           SKY/WX    TMP DP  RH WIND       PRES   REMARKS
CHAMBERLAIN    CLOUDY    66  58  76 SE10G16   30.06F
HURON          MOCLDY    64  54  69 SE8       30.09F
MADISON        FAIR      55  55 100 E5        30.15F
MITCHELL       PTCLDY    65  59  81 SE8       30.10F
SIOUX FALLS    CLEAR     64  55  72 E9        30.14F
WINNER         CLOUDY    71  58  63 SE16G23   30.04F
YANKTON        MOCLDY    61  57  88 E7        30.11F
$$

MNZ071-072-080-081-089-090-097-098-241000-
SOUTHWEST MINNESOTA

CITY           SKY/WX    TMP DP  RH WIND       PRES   REMARKS
FAIRMONT       CLEAR     57  50  77 CALM      30.16F
JACKSON        MOCLDY    55  52  88 CALM      30.17F
LUVERNE        CLEAR     61  54  77 E3        30.16F
MARSHALL       CLEAR     57  52  82 SW5       30.15S
MONTEVIDEO     CLEAR     61  55  82 SW3       30.17R
PIPESTONE      CLEAR     61  54  77 SE5       30.16F
REDWOOD FALLS  CLEAR     59  53  80 CALM      30.16S
TRACY          CLEAR     64  51  62 S5        30.17S
WINDOM         CLEAR     55  50  82 CALM      30.17F
WORTHINGTON    CLEAR     57  52  82 CALM      30.18F
$$

IAZ001>003-012>014-020>022-031-032-NEZ013-014-SDZ071-241000-
NORTHWEST IOWA

CITY           SKY/WX    TMP DP  RH WIND       PRES   REMARKS
CHEROKEE       CLEAR     60  60  99 CALM      30.16S
DENISON        CLEAR     63  59  88 E5        30.13F
ESTHERVILLE    CLEAR     55  53  93 CALM      30.16F
LE MARS        CLEAR     63  61  94 CALM      30.15F
ORANGE CITY    CLEAR     64  57  77 E3        30.16S
SIOUX CITY     CLEAR     63  61  93 SE6       30.13F
SPENCER        PTCLDY    59  56  89 N6        30.17F
STORM LAKE     CLEAR     61  59  94 SE3       30.17F
$$

ABBREVIATIONS USED IN REMARKS
   TC - TEMPERATURE IN CELSIUS
  WCI - WIND CHILL INDEX
   HX - HEAT INDEX
  VSB - VISIBILITY




USA.gov is the U.S. government's official web portal to all federal, state and local government web resources and services.